| time (UTC) | temp F | wind direction | speed MPH | gust MPH | rain 1hr in | rain 24hr in | rain mn in | humidity % | barometer mb |
| 20260505041548 | 61 | 18 | 1.0 | 6.0 | 0.00 | 0.00 | 0.00 | 38 | 1008.2 |
| 20260505040045 | 60 | 18 | 2.0 | 4.0 | 0.00 | 0.00 | 0.00 | 42 | 1008.0 |
| 20260505034541 | 61 | 19 | 2.0 | 5.0 | 0.00 | 0.00 | 0.00 | 41 | 1008.2 |
| 20260505033041 | 64 | 5 | 1.0 | 9.0 | 0.00 | 0.00 | 0.00 | 33 | 1008.1 |
| 20260505031541 | 67 | 19 | 1.0 | 4.0 | 0.00 | 0.00 | 0.00 | 27 | 1008.2 |
| 20260505030056 | 69 | 32 | 1.0 | 6.0 | 0.00 | 0.00 | 0.00 | 24 | 1007.9 |
| 20260505024543 | 71 | 22 | 2.0 | 5.0 | 0.00 | 0.00 | 0.00 | 22 | 1008.1 |
| 20260505023037 | 72 | 27 | 3.0 | 5.0 | 0.00 | 0.00 | 0.00 | 21 | 1008.0 |
| 20260505021550 | 72 | 0 | 1.0 | 5.0 | 0.00 | 0.00 | 0.00 | 20 | 1007.9 |
| 20260505020050 | 74 | 38 | 2.0 | 10.0 | 0.00 | 0.00 | 0.00 | 19 | 1007.9 |
| 20260505014540 | 74 | 46 | 3.0 | 10.0 | 0.00 | 0.00 | 0.00 | 18 | 1008.0 |
| 20260505013037 | 75 | 32 | 5.0 | 12.0 | 0.00 | 0.00 | 0.00 | 17 | 1008.0 |
| 20260505011544 | 75 | 43 | 7.0 | 11.0 | 0.00 | 0.00 | 0.00 | 17 | 1008.5 |
| 20260505010103 | 76 | 38 | 5.0 | 14.0 | 0.00 | 0.00 | 0.00 | 17 | 1008.3 |
| 20260505004539 | 77 | 112 | 4.0 | 14.0 | 0.00 | 0.00 | 0.00 | 16 | 1008.2 |
| 20260505003047 | 77 | 53 | 5.0 | 13.0 | 0.00 | 0.00 | 0.00 | 17 | 1007.9 |
| 20260505001540 | 77 | 44 | 5.0 | 13.0 | 0.00 | 0.00 | 0.00 | 16 | 1008.1 |
| 20260505000053 | 77 | 61 | 7.0 | 18.0 | 0.00 | 0.00 | 0.00 | 15 | 1008.1 |
| 20260504234541 | 78 | 42 | 4.0 | 14.0 | 0.00 | 0.00 | 0.00 | 17 | 1007.9 |
| 20260504233049 | 79 | 23 | 4.0 | 10.0 | 0.00 | 0.00 | 0.00 | 16 | 1008.1 |
| 20260504231538 | 77 | 46 | 4.0 | 10.0 | 0.00 | 0.00 | 0.00 | 17 | 1008.1 |
| 20260504230104 | 77 | 24 | 4.0 | 14.0 | 0.00 | 0.00 | 0.00 | 16 | 1008.3 |
| 20260504224558 | 78 | 355 | 2.0 | 13.0 | 0.00 | 0.00 | 0.00 | 19 | 1008.3 |
| 20260504223048 | 78 | 18 | 5.0 | 12.0 | 0.00 | 0.00 | 0.00 | 17 | 1008.2 |
| 20260504221539 | 77 | 341 | 2.0 | 13.0 | 0.00 | 0.00 | 0.00 | 16 | 1008.1 |
| 20260504220052 | 77 | 13 | 6.0 | 15.0 | 0.00 | 0.00 | 0.00 | 14 | 1008.2 |
| 20260504214547 | 78 | 0 | 2.0 | 14.0 | 0.00 | 0.00 | 0.00 | 17 | 1008.5 |
| 20260504213040 | 78 | 24 | 4.0 | 10.0 | 0.00 | 0.00 | 0.00 | 16 | 1008.5 |
| 20260504211538 | 77 | 355 | 6.0 | 16.0 | 0.00 | 0.00 | 0.00 | 18 | 1008.5 |
| 20260504210052 | 77 | 23 | 7.0 | 14.0 | 0.00 | 0.00 | 0.00 | 16 | 1008.6 |
| 20260504204546 | 77 | 24 | 5.0 | 12.0 | 0.00 | 0.00 | 0.00 | 19 | 1008.5 |
| 20260504203045 | 76 | 32 | 8.0 | 14.0 | 0.00 | 0.00 | 0.00 | 17 | 1008.6 |
| 20260504201544 | 77 | 351 | 2.0 | 12.0 | 0.00 | 0.00 | 0.00 | 16 | 1008.5 |
| 20260504200050 | 77 | 37 | 5.0 | 11.0 | 0.00 | 0.00 | 0.00 | 17 | 1008.6 |
| 20260504194538 | 77 | 21 | 2.0 | 11.0 | 0.00 | 0.00 | 0.00 | 20 | 1008.6 |
| 20260504193045 | 76 | 16 | 3.0 | 10.0 | 0.00 | 0.00 | 0.00 | 19 | 1008.8 |
| 20260504191552 | 75 | 46 | 5.0 | 12.0 | 0.00 | 0.00 | 0.00 | 17 | 1008.8 |
| 20260504190040 | 75 | 37 | 5.0 | 10.0 | 0.00 | 0.00 | 0.00 | 16 | 1008.8 |
| 20260504184540 | 75 | 44 | 2.0 | 11.0 | 0.00 | 0.00 | 0.00 | 19 | 1008.9 |
| 20260504183038 | 74 | 53 | 3.0 | 13.0 | 0.00 | 0.00 | 0.00 | 20 | 1009.0 |
| 20260504181544 | 74 | 355 | 4.0 | 16.0 | 0.00 | 0.00 | 0.00 | 20 | 1009.1 |
| 20260504180044 | 73 | 14 | 6.0 | 13.0 | 0.00 | 0.00 | 0.00 | 18 | 1009.0 |
| 20260504174539 | 73 | 13 | 4.0 | 12.0 | 0.00 | 0.00 | 0.00 | 22 | 1008.8 |
| 20260504173039 | 72 | 15 | 7.0 | 15.0 | 0.00 | 0.00 | 0.00 | 21 | 1008.7 |
| 20260504171538 | 71 | 25 | 4.0 | 14.0 | 0.00 | 0.00 | 0.00 | 24 | 1008.6 |
| 20260504081544 | 49 | 0 | 0.0 | 0.0 | 0.00 | 0.00 | 0.00 | 63 | 1008.1 |